Location: Austin
(30.3000°N, 97.7500°W)
Time: 22:43:57
(UTC-05:00)

MOS 1-B - Pass Details

Date: 06 May 2026
Orbit: 904 x 911 km, 99.2° (Epoch: 13 May)

Event Time Altitude Azimuth Distance (km) Brightness Sun altitude
Exits shadow 22:23:10 59° 96° (E) 1,043 4.3 -25.3°
Maximum altitude 22:23:38 61° 73° (ENE) 1,025 4.4 -25.4°
Drops below altitude 10° 22:29:19 10° 355° (N) 2,596 7.3 -26.3°
Sets 22:31:45 0° 352° (N) 3,541 8.2 -26.7°
